Find Starlink 32886

NORAD ID: 62807 Int'l Des: 2025-018 Owner: SPXS Country: US Constellation: starlink operational
LEOCIRCULAR

实时位置

正在加载3D地球...

关于 Starlink 32886

正在加载描述...

即将过境

Passes for default location (London). Set your location on the main map for personalized predictions.

高度历史

Loading altitude history...

两行轨道根数

1 62807U 25018B 26125.08180149 .00030153 00000-0 10254-2 0 9992
2 62807 53.1586 47.5656 0001216 98.9080 261.2059 15.30222740 71818
Epoch: May 5, 2026 • Age: 7 hours

当前状态

高度 494.1 km
速度 7.62 km/s
星下点 -52.43°S, 62.08°W
发射日期 Jan 24, 2025
运行时间 1.2 years
类型 internet

技术详情

分类 Payload
质量 730.00 kg
干质量 700.00 kg
总质量 730.00 kg
长度 0.30 m
直径 4.10 m
跨度 29.00 m
形状 Box + pan
制造商 SPXS
平台类型 Starlink V2M
阶段状态 In Orbit
所有者/国家 SPXS/US

Most Searched